Flight Track Log - Related Links

Times and Time Zones

All times are in EDT time to prevent confusion due to time zone crossing. See the N319EE flight status page for this flight to view local times or setup timezone preferences in your user account.

Time Position Orientation Groundspeed Altitude Reporting Facility
EDT Latitude Longitude Course Direction KTS MPH feet Rate Location/Type
Tue 03:40:57 PM 42.1756 -76.0258 307° West 184 212 5,200  Level New York Center
Tue 03:41:57 PM 42.2047 -76.0758 308° West 154 177 7,100 1,900 Climbing New York Center
Tue 03:42:57 PM 42.2442 -76.1211 320° Northwest 162 186 9,000 1,450 Climbing New York Center
Tue 03:43:57 PM 42.2683 -76.1875 296° West 182 209 10,000 500 Climbing New York Center
Tue 03:44:57 PM 42.3053 -76.2408 313° West 207 238 10,000 -50 Level New York Center
Tue 03:45:00 PM 42.3582 -76.2619 307° West  Level FlightAware Approximate
Tue 03:45:57 PM 42.3494 -76.3231 306° West 233 268 9,900  Level New York Center
Tue 03:46:57 PM 42.3939 -76.3972 309° West 247 284 9,900 50 Level New York Center
Tue 03:47:57 PM 42.4383 -76.4683 310° West 252 290 10,000 50 Climbing New York Center
Tue 03:48:57 PM 42.4806 -76.5450 307° West 252 290 10,000  Level New York Center
Tue 03:50:20 PM 42.5375 -76.6442 308° West 254 292 10,000  Level Cleveland Center
Tue 03:51:22 PM 42.5794 -76.7186 307° West 249 287 10,000  Level Cleveland Center
Tue 03:52:24 PM 42.6325 -76.8089 309° West 253 291 10,000  Level Cleveland Center
Tue 03:53:26 PM 42.6758 -76.8853 308° West 253 291 10,000  Level Cleveland Center
Tue 03:54:28 PM 42.7150 -76.9628 305° West 253 291 10,000  Level Cleveland Center
Tue 03:55:30 PM 42.7564 -77.0411 306° West 254 292 10,000  Level Cleveland Center
Tue 03:56:32 PM 42.7964 -77.1181 305° West 254 292 10,000 -667 Level Cleveland Center
Tue 03:57:36 PM 42.8481 -77.2183 305° West 274 315 8,600 -1,258 Descending Cleveland Center
Tue 03:58:36 PM 42.8886 -77.3006 304° West 273 314 7,400 -1,233 Descending Cleveland Center
Tue 03:58:49 PM 42.8972 -77.3231 298° West 250 288 7,100 -1,524 Descending Cleveland Center
Tue 03:59:39 PM 42.9211 -77.3817 299° West 254 292 5,800 -1,983 Descending Cleveland Center
Tue 04:00:44 PM 42.9603 -77.4781 299° West 240 276 3,300 -1,645 Descending Cleveland Center
Tue 04:01:43 PM 42.9842 -77.5403 298° West 242 278 2,400 -694 Descending Cleveland Center
Tue 04:02:45 PM 43.0306 -77.6214 308° West 235 270 1,900 -290 Descending Cleveland Center
Tue 04:03:47 PM 43.0697 -77.6781 313° West 220 253 1,800 -435 Descending Cleveland Center
Tue 04:04:49 PM 43.1031 -77.6997 335° Northwest 167 192 1,000 -629 Descending Cleveland Center
Tue 04:05:51 PM 43.1200 -77.6617 59° Northeast 134 154 500 -484 Descending Cleveland Center
Tue 04:07:00 PM 43.1167 -77.6667 316° Northwest  Level FlightAware Approximate

Login

Don't have an account? Register now (free) for customized features, flight alerts, and more!